Terminal Aerodrome Forecast
Issued by NWS Houston/Galveston TX

Home | Current Version | Previous Version | Text Only | Print | Product List | Glossary On
Versions: 1 2 3 4 5 6 7 8 9 10 11 12 13 14 15 16 17 18 19 20 21 22 23 24 25 26 27 28 29 30 31 32 33 34 35 36 37 38 39 40 41 42 43 44 45 46 47 48 49 50
000
FTUS44 KHGX 242340
TAFHOU
TAF
KHOU 242340Z 2500/2524 17006KT P6SM FEW030 SCT250
     FM250600 VRB03KT P6SM VCSH BKN018
     FM250900 21005KT P6SM VCSH BKN012 PROB30 2510/2513 -TSRA
      OVC015CB
     FM251500 20007KT P6SM SCT050 SCT250=

USA.gov is the U.S. government's official web portal to all federal, state and local government web resources and services.